Regional Weather Roundup
Issued by NWS Memphis, TN

Current Version | Previous Version | Text Only | Print | Product List | Glossary On
Versions: 1 2 3 4 5 6 7 8 9 10 11 12 13 14 15 16 17 18 19 20 21 22 23 24 25 26 27 28 29 30 31 32 33 34 35 36 37 38 39 40 41 42 43 44 45 46 47 48 49 50
398
ASUS44 KMEG 210910
RWRMEG
MEMPHIS CWA HOURLY WEATHER ROUNDUP
NATIONAL WEATHER SERVICE MEMPHIS TN
400 AM CDT SAT OCT 21 2017

...WEST TENNESSEE...

CITY           SKY/WX    TMP DP  RH WIND       PRES   REMARKS
MEMPHIS INTL   MOCLDY    65  54  67 S9        30.09S
NWS MEMPHIS      N/A     60 N/A N/A MISG        N/A
JACKSON        MOCLDY    57  50  77 S5        30.12S
COVINGTON      CLOUDY    55  54  94 SE5       30.11R
SOMERVILLE     PTCLDY    61  52  72 MISG      30.10R
BOLIVAR        PTCLDY    55  50  82 CALM      30.12R
LEXINGTON      PTCLDY    48  46  93 CALM      30.13F
SELMER         PTCLDY    57  48  72 S5        30.13R
SAVANNAH       PTCLDY    57  48  72 S7        30.13S
DYERSBURG      CLOUDY    60  52  74 SE7       30.11F
UNION CITY     PTCLDY    55  50  82 CALM      30.11F
HUNTINGDON     PTCLDY    55  48  76 CALM      30.12S


...EASTERN ARKANSAS...

CITY           SKY/WX    TMP DP  RH WIND       PRES   REMARKS
JONESBORO      CLOUDY    60  57  89 NE3       30.07S
WEST MEMPHIS   CLOUDY    64  56  75 S12       30.07S
BATESVILLE     MOCLDY    66  58  75 VRB5      30.05F
NEWPORT        CLOUDY    64  58  80 S9        30.06S
WALNUT RIDGE   CLOUDY    61  56  83 SE7       30.06F
BLYTHEVILLE    PTCLDY    62  55  77 S7        30.09S
SEARCY         PTCLDY    63  61  93 S3        30.05F
STUTTGART      CLOUDY    67  60  78 SE10      30.05F
PINE BLUFF     CLOUDY    66  59  78 SE9       30.04F
MONTICELLO     CLOUDY    63  59  87 CALM      30.06R


...NORTH MISSISSIPPI...

CITY           SKY/WX    TMP DP  RH WIND       PRES   REMARKS
TUPELO         PTCLDY    54  51  90 CALM      30.12S
OXFORD         PTCLDY    59  52  77 SE6       30.12S
BATESVILLE     MOCLDY    61  53  77 CALM      30.10S
TUNICA           N/A    N/A N/A N/A SE7       30.09S
CLARKSDALE       N/A     61  61 100 SE5       30.08S
CORINTH        PTCLDY    50  48  93 CALM      30.13R
GREENWOOD      MOCLDY    61  57  87 CALM      30.08S
COLUMBUS       PTCLDY    54  54 100 E6        30.11F
STARKVILLE     MOCLDY    55  54  94 CALM      30.12S
GOLDEN TRIANGL MOCLDY    61  52  72 SE6       30.12S


...SOUTHEAST MISSOURI...

CITY           SKY/WX    TMP DP  RH WIND       PRES   REMARKS
KENNETT        MOCLDY    59  55  88 CALM      30.07S
MALDEN         CLOUDY    57  52  82 CALM      30.10S
WEST PLAINS    CLOUDY    61  55  81 SE8       30.06F
POPLAR BLUFF   CLOUDY    60  54  80 S6        30.07F
CAPE GIRARDEAU CLOUDY    58  49  72 S6        30.08F


...NORTHWEST ALABAMA...

CITY           SKY/WX    TMP DP  RH WIND       PRES   REMARKS
MUSCLE SHOALS  PTCLDY    51  46  83 CALM      30.17S


...MIDDLE TENNESSEE...

CITY           SKY/WX    TMP DP  RH WIND       PRES   REMARKS
NASHVILLE      MOCLDY    49  45  86 S3        30.18S
CLARKSVILLE    PTCLDY    50  48  93 SE6       30.16S
COLUMBIA       CLEAR     45  45 100 CALM      30.15S


...WESTERN KENTUCKY...

CITY           SKY/WX    TMP DP  RH WIND       PRES   REMARKS
PADUCAH        CLOUDY    61  46  57 S7        30.11S
FORT CAMPBELL  PTCLDY    54  50  87 SE6       30.15S


...CENTRAL ARKANSAS...

CITY           SKY/WX    TMP DP  RH WIND       PRES   REMARKS
LITTLE ROCK    CLOUDY    62  58  86 SE5       30.03F


SKY/WX REPORTED AS FAIR MEANS FEW OR NO CLOUDS BELOW
12 THOUSAND FEET.





USA.gov is the U.S. government's official web portal to all federal, state and local government web resources and services.